Weather History for Nuiqsut, AK

Change the Weather History Date:

Wednesday, March 5, 2014

  Actual Average (PAKU) Record (PAKU)
Temperature  
Mean Temperature -30 °F -  
Max Temperature -25 °F -7 °F 6 °F (2003)
Min Temperature -35 °F -18 °F -41 °F (2007)
Degree Days  
Heating Degree Days 95    
Moisture  
Dew Point -32 °F    
Average Humidity 78    
Maximum Humidity 83    
Minimum Humidity 77    
Precipitation  
Precipitation 0.00 in - - ()
Sea Level Pressure  
Sea Level Pressure 30.50 in    
Wind  
Wind Speed 9 mph (SSW)    
Max Wind Speed 12 mph    
Max Gust Speed -    
Visibility 8 miles    
Events      
Averages and records for this station are not official NWS values.
T = Trace of Precipitation, MM = Missing Value Source: NWS Daily Summary

Daily Weather History Graph

Daily Weather History Graph

Search for Another Location

Airport:

Trip Planner

Search our weather history database for the weather conditions in past years. The results will help you decide how hot, cold, wet, or windy it might be!

Date:

Astronomy

Mar. 05, 2014 Rise Set
Actual Time 8:11 AM AKST 6:20 PM AKST
Civil Twilight 7:10 AM AKST 7:22 PM AKST
Nautical Twilight 5:58 AM AKST 8:34 PM AKST
Astronomical Twilight 4:39 AM AKST 9:54 PM AKST
Moon 7:48 AM AKST (3/5) 1:24 AM AKST (3/5)
Length of Visible Light 12h 12m
Length of Day
10h 09m
Waxing Crescent, 24% of the Moon is Illuminated
Mar 5
Waxing Crescent
Mar 8
First Quarter
Mar 16
Full
Mar 23
Last Quarter
Mar 30
New

Hourly Weather History & Observations

Time (AKST) Temp. Windchill Dew Point Humidity Pressure Visibility Wind Dir Wind Speed Gust Speed Precip Events Conditions
12:03 AM -34.1 °F -49.7 °F - N/A% 30.51 in 5.0 mi SSW 4.6 mph - N/A   Haze
12:33 AM -34.1 °F -55.7 °F - N/A% 30.50 in 8.0 mi SSW 8.1 mph - N/A   Mostly Cloudy
12:40 AM -34.1 °F -55.7 °F - N/A% 30.50 in 9.0 mi South 8.1 mph - N/A   Partly Cloudy
12:53 AM -34.1 °F -59.8 °F - N/A% 30.51 in 9.0 mi SW 11.5 mph - N/A   Scattered Clouds
1:15 AM -34.1 °F -57.2 °F - N/A% 30.50 in 5.0 mi SW 9.2 mph - N/A   Haze
1:34 AM -35.0 °F -56.8 °F - N/A% 30.50 in 9.0 mi SSW 8.1 mph - N/A   Scattered Clouds
1:53 AM -35.0 °F -56.8 °F - N/A% 30.51 in 10.0 mi SW 8.1 mph - N/A   Clear
2:53 AM -34.1 °F -59.8 °F - N/A% 30.51 in 9.0 mi SW 11.5 mph - N/A   Mostly Cloudy
3:53 AM -31.0 °F -54.7 °F - N/A% 30.50 in 4.0 mi SW 10.4 mph - N/A   Haze
4:53 AM -29.0 °F -53.5 °F -34.1 °F 77% 30.49 in 5.0 mi SSW 11.5 mph - 0.00 in   Haze
5:53 AM -31.0 °F -56.0 °F - N/A% 30.49 in 8.0 mi SSW 11.5 mph - N/A   Mostly Cloudy
6:53 AM -31.0 °F -53.4 °F - N/A% 30.48 in 7.0 mi SSW 9.2 mph - N/A   Overcast
7:53 AM -29.9 °F -54.6 °F - N/A% 30.48 in 8.0 mi SSW 11.5 mph - N/A   Overcast
8:44 AM -31.0 °F -54.7 °F - N/A% 30.48 in 4.0 mi SSW 10.4 mph - N/A   Haze
8:53 AM -32.1 °F -56.1 °F - N/A% 30.48 in 6.0 mi SSW 10.4 mph - N/A   Haze
9:03 AM -32.1 °F -56.1 °F - N/A% 30.47 in 9.0 mi SSW 10.4 mph - N/A   Scattered Clouds
9:53 AM -31.0 °F -54.7 °F - N/A% 30.48 in 10.0 mi SSW 10.4 mph - N/A   Mostly Cloudy
10:53 AM -29.9 °F -53.4 °F - N/A% 30.48 in 10.0 mi SSW 10.4 mph - N/A   Clear
11:53 AM -29.0 °F -49.5 °F -34.1 °F 77% 30.48 in 10.0 mi SSW 8.1 mph - N/A   Partly Cloudy
12:53 PM -27.9 °F -48.2 °F -33.0 °F 77% 30.49 in 10.0 mi SSW 8.1 mph - N/A   Clear
1:53 PM -27.0 °F -47.1 °F -32.1 °F 77% 30.49 in 10.0 mi SSW 8.1 mph - N/A   Mostly Cloudy
2:13 PM -26.0 °F -47.2 °F -31.0 °F 77% 30.48 in 4.0 mi SSW 9.2 mph - N/A   Haze
2:49 PM -25.6 °F -46.8 °F -29.2 °F 83% 30.48 in 3.0 mi SSW 9.2 mph - 0.00 in   Overcast
2:53 PM -26.0 °F -47.2 °F -29.9 °F 81% 30.49 in 4.0 mi SSW 9.2 mph - 0.00 in   Overcast
3:11 PM -26.0 °F -44.2 °F -31.0 °F 77% 30.49 in 10.0 mi SW 6.9 mph - N/A   Scattered Clouds
3:53 PM -27.0 °F -47.1 °F -31.0 °F 81% 30.50 in 5.0 mi SSW 8.1 mph - N/A   Scattered Clouds
4:53 PM -27.9 °F -50.9 °F -33.0 °F 77% 30.49 in 9.0 mi SSW 10.4 mph - N/A   Clear
5:53 PM -29.9 °F -53.4 °F - N/A% 30.50 in 10.0 mi SSW 10.4 mph - N/A   Mostly Cloudy
6:18 PM -29.9 °F -52.1 °F - N/A% 30.49 in 9.0 mi SSW 9.2 mph - N/A   Scattered Clouds
6:53 PM -29.9 °F -53.4 °F - N/A% 30.50 in 10.0 mi SSW 10.4 mph - N/A   Clear
7:53 PM -32.1 °F -53.3 °F - N/A% 30.51 in 7.0 mi SW 8.1 mph - N/A   Overcast
8:53 PM -32.1 °F -56.1 °F - N/A% 30.52 in 10.0 mi SW 10.4 mph - N/A   Clear
9:33 PM -32.1 °F -54.7 °F - N/A% 30.52 in 5.0 mi SSW 9.2 mph - N/A   Haze
9:51 PM -32.8 °F -57.0 °F - N/A% 30.52 in 9.0 mi SSW 10.4 mph - N/A   Mostly Cloudy
9:53 PM -33.0 °F -57.2 °F - N/A% 30.53 in 10.0 mi SSW 10.4 mph - N/A   Mostly Cloudy
10:53 PM -33.0 °F -57.2 °F - N/A% 30.53 in 8.0 mi SSW 10.4 mph - N/A   Mostly Cloudy
11:12 PM -32.1 °F -54.7 °F - N/A% 30.52 in 4.0 mi SW 9.2 mph - N/A   Haze
11:34 PM -33.0 °F -55.9 °F - N/A% 30.53 in 9.0 mi SW 9.2 mph - N/A   Scattered Clouds
11:53 PM -33.0 °F -55.9 °F - N/A% 30.54 in 10.0 mi SSW 9.2 mph - N/A   Clear